TimeMST,TemperatureF,Dew PointF,Humidity,Sea Level PressureIn,VisibilityMPH,Wind Direction,Wind SpeedMPH,Gust SpeedMPH,PrecipitationIn,Events,Conditions,WindDirDegrees,DateUTC
12:15 AM,34.2,14.4,44,30.27,10.0,Calm,Calm,-,N/A,,Clear,0,2012-11-21 07:15:00
12:35 AM,34.7,14.7,44,30.26,10.0,North,4.6,-,N/A,,Clear,350,2012-11-21 07:35:00
12:55 AM,34.0,14.7,45,30.26,10.0,NNE,4.6,-,N/A,,Clear,20,2012-11-21 07:55:00
1:15 AM,33.1,14.5,47,30.26,10.0,WNW,4.6,-,N/A,,Clear,300,2012-11-21 08:15:00
1:35 AM,36.7,15.4,42,30.26,10.0,Calm,Calm,-,N/A,,Clear,0,2012-11-21 08:35:00
1:55 AM,34.3,14.2,44,30.26,10.0,Calm,Calm,-,N/A,,Clear,0,2012-11-21 08:55:00
2:15 AM,34.2,13.3,42,30.26,10.0,NNW,5.8,-,N/A,,Clear,330,2012-11-21 09:15:00
2:35 AM,34.0,13.1,42,30.26,10.0,NW,3.5,-,N/A,,Clear,320,2012-11-21 09:35:00
2:55 AM,34.2,12.7,41,30.26,10.0,Calm,Calm,-,N/A,,Clear,0,2012-11-21 09:55:00
3:15 AM,34.5,13.8,43,30.26,10.0,WNW,4.6,-,N/A,,Clear,300,2012-11-21 10:15:00
3:35 AM,34.9,14.0,42,30.26,10.0,NW,5.8,-,N/A,,Clear,310,2012-11-21 10:35:00
4:15 AM,34.9,12.0,39,30.25,10.0,NNW,4.6,-,N/A,,Clear,330,2012-11-21 11:15:00
4:35 AM,34.7,12.2,39,30.25,10.0,WNW,5.8,-,N/A,,Clear,290,2012-11-21 11:35:00
4:55 AM,35.2,12.4,39,30.25,10.0,NW,4.6,-,N/A,,Clear,310,2012-11-21 11:55:00
5:15 AM,35.6,11.8,38,30.25,10.0,NW,3.5,-,N/A,,Clear,310,2012-11-21 12:15:00
5:35 AM,35.1,12.0,39,30.25,10.0,NW,3.5,-,N/A,,Clear,320,2012-11-21 12:35:00
5:55 AM,35.2,12.7,40,30.25,10.0,Calm,Calm,-,N/A,,Clear,0,2012-11-21 12:55:00
6:15 AM,34.7,13.1,41,30.25,10.0,WNW,3.5,-,N/A,,Clear,290,2012-11-21 13:15:00
6:35 AM,34.7,12.7,40,30.26,10.0,WNW,4.6,-,N/A,,Clear,300,2012-11-21 13:35:00
6:55 AM,34.9,11.5,38,30.26,10.0,WNW,5.8,-,N/A,,Clear,300,2012-11-21 13:55:00
7:15 AM,35.1,10.9,37,30.27,10.0,NW,5.8,-,N/A,,Clear,310,2012-11-21 14:15:00
7:35 AM,35.4,11.1,37,30.27,10.0,NW,3.5,-,N/A,,Scattered Clouds,320,2012-11-21 14:35:00
7:55 AM,36.9,12.2,36,30.27,10.0,Calm,Calm,-,N/A,,Mostly Cloudy,0,2012-11-21 14:55:00
8:15 AM,39.9,14.5,36,30.28,10.0,North,3.5,-,N/A,,Overcast,350,2012-11-21 15:15:00
8:35 AM,41.7,15.8,35,30.28,10.0,Calm,Calm,-,N/A,,Mostly Cloudy,0,2012-11-21 15:35:00
8:55 AM,43.0,15.6,33,30.28,10.0,WNW,3.5,-,N/A,,Scattered Clouds,300,2012-11-21 15:55:00
9:15 AM,42.8,14.5,32,30.29,10.0,WNW,3.5,-,N/A,,Mostly Cloudy,290,2012-11-21 16:15:00
9:35 AM,44.6,14.9,30,30.29,10.0,Calm,Calm,-,N/A,,Overcast,0,2012-11-21 16:35:00
9:55 AM,46.8,15.6,29,30.29,10.0,NNW,3.5,-,N/A,,Overcast,340,2012-11-21 16:55:00
10:15 AM,48.2,16.0,28,30.28,10.0,Calm,Calm,-,N/A,,Overcast,0,2012-11-21 17:15:00
10:35 AM,50.9,16.9,26,30.28,10.0,Calm,Calm,-,N/A,,Mostly Cloudy,0,2012-11-21 17:35:00
10:55 AM,50.4,17.6,27,30.27,10.0,ENE,3.5,-,N/A,,Scattered Clouds,70,2012-11-21 17:55:00
11:15 AM,50.9,18.1,27,30.26,10.0,NNE,3.5,-,N/A,,Mostly Cloudy,30,2012-11-21 18:15:00
11:35 AM,51.1,18.1,27,30.25,10.0,NE,3.5,-,N/A,,Overcast,40,2012-11-21 18:35:00
11:55 AM,51.8,18.3,27,30.23,10.0,Calm,Calm,-,N/A,,Overcast,0,2012-11-21 18:55:00
12:15 PM,52.9,18.3,26,30.22,10.0,NE,3.5,-,N/A,,Overcast,40,2012-11-21 19:15:00
12:35 PM,53.8,18.5,25,30.21,10.0,Calm,Calm,-,N/A,,Mostly Cloudy,0,2012-11-21 19:35:00
1:15 PM,55.8,19.2,24,30.19,10.0,Calm,Calm,-,N/A,,Clear,0,2012-11-21 20:15:00
1:35 PM,55.8,19.2,24,30.18,10.0,Calm,Calm,-,N/A,,Scattered Clouds,0,2012-11-21 20:35:00
1:55 PM,55.9,19.6,24,30.18,10.0,Calm,Calm,-,N/A,,Scattered Clouds,0,2012-11-21 20:55:00
2:15 PM,56.1,20.3,25,30.17,10.0,Calm,Calm,-,N/A,,Clear,0,2012-11-21 21:15:00
2:35 PM,55.8,20.3,25,30.16,10.0,Calm,Calm,-,N/A,,Mostly Cloudy,0,2012-11-21 21:35:00
2:55 PM,55.9,20.5,25,30.15,10.0,SE,3.5,-,N/A,,Mostly Cloudy,140,2012-11-21 21:55:00
3:15 PM,56.3,20.8,25,30.15,10.0,Calm,Calm,-,N/A,,Scattered Clouds,0,2012-11-21 22:15:00
3:35 PM,55.9,20.8,26,30.15,10.0,South,3.5,-,N/A,,Clear,180,2012-11-21 22:35:00
3:55 PM,56.1,21.0,26,30.14,10.0,SSE,4.6,-,N/A,,Clear,160,2012-11-21 22:55:00
4:15 PM,55.8,21.0,26,30.14,10.0,Calm,Calm,-,N/A,,Clear,0,2012-11-21 23:15:00
4:35 PM,55.4,21.0,26,30.14,10.0,Calm,Calm,-,N/A,,Clear,0,2012-11-21 23:35:00
4:55 PM,55.0,20.8,26,30.14,10.0,Calm,Calm,-,N/A,,Clear,0,2012-11-21 23:55:00
5:15 PM,52.0,20.3,29,30.14,10.0,SW,4.6,-,N/A,,Clear,220,2012-11-22 00:15:00
5:35 PM,49.5,19.4,31,30.14,10.0,SW,3.5,-,N/A,,Clear,220,2012-11-22 00:35:00
5:55 PM,48.7,18.7,30,30.14,10.0,SSW,4.6,-,N/A,,Clear,210,2012-11-22 00:55:00
6:15 PM,47.1,18.0,31,30.15,10.0,SW,4.6,-,N/A,,Clear,220,2012-11-22 01:15:00
6:35 PM,47.1,18.1,32,30.15,10.0,WSW,4.6,-,N/A,,Clear,240,2012-11-22 01:35:00
6:55 PM,45.3,17.2,33,30.15,10.0,Calm,Calm,-,N/A,,Clear,0,2012-11-22 01:55:00
7:15 PM,44.8,17.1,33,30.15,10.0,Calm,Calm,-,N/A,,Clear,0,2012-11-22 02:15:00
7:35 PM,43.0,16.7,35,30.15,10.0,North,3.5,-,N/A,,Clear,350,2012-11-22 02:35:00
7:55 PM,41.5,15.8,35,30.16,10.0,North,4.6,-,N/A,,Clear,360,2012-11-22 02:55:00
8:15 PM,39.4,14.9,37,30.16,10.0,NNW,3.5,-,N/A,,Clear,340,2012-11-22 03:15:00
8:35 PM,40.5,15.6,37,30.16,10.0,Calm,Calm,-,N/A,,Clear,0,2012-11-22 03:35:00
8:55 PM,40.5,15.3,36,30.16,10.0,Calm,Calm,-,N/A,,Clear,0,2012-11-22 03:55:00
9:15 PM,39.7,16.2,38,30.16,10.0,NW,8.1,-,N/A,,Clear,320,2012-11-22 04:15:00
9:35 PM,41.0,16.7,37,30.16,10.0,NW,6.9,-,N/A,,Clear,310,2012-11-22 04:35:00
9:55 PM,39.4,16.2,39,30.16,10.0,NW,6.9,-,N/A,,Clear,310,2012-11-22 04:55:00
10:15 PM,37.9,16.5,42,30.16,10.0,NW,3.5,-,N/A,,Clear,320,2012-11-22 05:15:00
10:35 PM,36.9,15.4,42,30.16,10.0,Calm,Calm,-,N/A,,Clear,0,2012-11-22 05:35:00
10:55 PM,37.4,15.4,41,30.16,10.0,WNW,3.5,-,N/A,,Clear,300,2012-11-22 05:55:00
11:15 PM,36.1,16.0,44,30.16,10.0,Calm,Calm,-,N/A,,Clear,0,2012-11-22 06:15:00
11:35 PM,34.2,14.2,44,30.16,10.0,NW,3.5,-,N/A,,Clear,320,2012-11-22 06:35:00
11:55 PM,37.0,17.2,45,30.16,10.0,NW,6.9,-,N/A,,Clear,310,2012-11-22 06:55:00